Time,TemperatureF,DewpointF,PressureIn,WindDirection,WindDirectionDegrees,WindSpeedMPH,WindSpeedGustMPH,Humidity,HourlyPrecipIn,Conditions,Clouds,dailyrainin,SoftwareType,DateUTC
2013-03-09 00:00:00,33.1,25.0,30.15,WNW,286,1.0,2.0,72,0.00,,,0.96,meteohub,2013-03-09 05:00:00,
2013-03-09 00:05:00,33.3,25.2,30.15,NW,318,0.0,5.0,72,0.00,,,0.00,meteohub,2013-03-09 05:05:00,
2013-03-09 00:10:00,33.1,25.3,30.15,NNW,327,0.0,5.0,73,0.00,,,0.00,meteohub,2013-03-09 05:10:00,
2013-03-09 00:15:00,32.9,24.8,30.15,NNW,327,0.0,4.0,72,0.00,,,0.00,meteohub,2013-03-09 05:15:00,
2013-03-09 00:20:00,32.7,24.4,30.15,NW,313,1.0,4.0,71,0.00,,,0.00,meteohub,2013-03-09 05:20:00,
2013-03-09 00:25:00,33.1,24.4,30.15,NW,324,0.0,3.0,70,0.00,,,0.00,meteohub,2013-03-09 05:25:00,
2013-03-09 00:30:00,33.1,24.6,30.15,NW,324,1.0,3.0,71,0.00,,,0.00,meteohub,2013-03-09 05:30:00,
2013-03-09 00:35:00,32.9,24.3,30.15,NW,324,0.0,3.0,70,0.00,,,0.00,meteohub,2013-03-09 05:35:00,
2013-03-09 00:40:00,33.1,24.4,30.16,WNW,300,0.0,3.0,70,0.00,,,0.00,meteohub,2013-03-09 05:40:00,
2013-03-09 00:45:00,32.9,24.3,30.16,NNW,332,0.0,4.0,70,0.00,,,0.00,meteohub,2013-03-09 05:45:00,
2013-03-09 00:50:00,32.7,24.4,30.16,NW,309,2.0,4.0,71,0.00,,,0.00,meteohub,2013-03-09 05:50:00,
2013-03-09 00:55:00,32.5,23.9,30.16,SW,216,0.0,4.0,70,0.00,,,0.00,meteohub,2013-03-09 05:55:00,
2013-03-09 01:00:00,32.5,23.9,30.16,WNW,283,0.0,3.0,70,0.00,,,0.00,meteohub,2013-03-09 06:00:00,
2013-03-09 01:05:00,32.4,24.1,30.16,WNW,283,0.0,3.0,71,0.00,,,0.00,meteohub,2013-03-09 06:05:00,
2013-03-09 01:10:00,32.5,23.9,30.16,WNW,283,0.0,3.0,70,0.00,,,0.00,meteohub,2013-03-09 06:10:00,
2013-03-09 01:15:00,32.5,23.9,30.16,WNW,283,0.0,2.0,70,0.00,,,0.00,meteohub,2013-03-09 06:15:00,
2013-03-09 01:20:00,32.4,23.7,30.16,WNW,294,0.0,2.0,70,0.00,,,0.00,meteohub,2013-03-09 06:20:00,
2013-03-09 01:25:00,32.4,23.7,30.16,WNW,294,0.0,2.0,70,0.00,,,0.00,meteohub,2013-03-09 06:25:00,
2013-03-09 01:30:00,32.2,23.5,30.15,WNW,294,0.0,2.0,70,0.00,,,0.00,meteohub,2013-03-09 06:30:00,
2013-03-09 01:35:00,32.2,23.5,30.16,WNW,298,0.0,3.0,70,0.00,,,0.00,meteohub,2013-03-09 06:35:00,
2013-03-09 01:40:00,32.4,23.7,30.16,WNW,290,2.0,5.0,70,0.00,,,0.00,meteohub,2013-03-09 06:40:00,
2013-03-09 01:45:00,32.5,23.2,30.16,NW,319,0.0,5.0,68,0.00,,,0.00,meteohub,2013-03-09 06:45:00,
2013-03-09 01:51:00,32.4,23.7,30.15,NW,319,1.0,5.0,70,0.00,,,0.00,meteohub,2013-03-09 06:51:00,
2013-03-09 01:56:00,32.0,23.4,30.16,NW,319,0.0,5.0,70,0.00,,,0.00,meteohub,2013-03-09 06:56:00,
2013-03-09 02:01:00,31.8,23.2,30.16,NW,319,0.0,3.0,70,0.00,,,0.00,meteohub,2013-03-09 07:01:00,
2013-03-09 02:06:00,31.8,23.2,30.16,NW,319,0.0,3.0,70,0.00,,,0.00,meteohub,2013-03-09 07:06:00,
2013-03-09 02:11:00,31.6,23.4,30.16,NW,319,0.0,2.0,71,0.00,,,0.00,meteohub,2013-03-09 07:11:00,
2013-03-09 02:16:00,31.5,23.2,30.15,NW,319,0.0,2.0,71,0.00,,,0.00,meteohub,2013-03-09 07:16:00,
2013-03-09 02:21:00,31.6,23.0,30.15,NW,320,0.0,2.0,70,0.00,,,0.00,meteohub,2013-03-09 07:21:00,
2013-03-09 02:26:00,31.5,22.8,30.16,NW,319,0.0,2.0,70,0.00,,,0.00,meteohub,2013-03-09 07:26:00,
2013-03-09 02:31:00,31.5,23.2,30.15,NW,319,0.0,2.0,71,0.00,,,0.00,meteohub,2013-03-09 07:31:00,
2013-03-09 02:36:00,31.3,23.0,30.15,NW,320,0.0,1.0,71,0.00,,,0.00,meteohub,2013-03-09 07:36:00,
2013-03-09 02:41:00,31.3,23.0,30.15,NW,319,0.0,1.0,71,0.00,,,0.00,meteohub,2013-03-09 07:41:00,
2013-03-09 02:46:00,30.9,22.6,30.15,NW,319,0.0,0.0,71,0.00,,,0.00,meteohub,2013-03-09 07:46:00,
2013-03-09 02:51:00,30.7,22.5,30.15,NW,313,0.0,1.0,71,0.00,,,0.00,meteohub,2013-03-09 07:51:00,
2013-03-09 02:56:00,30.7,22.8,30.15,NW,314,0.0,3.0,72,0.00,,,0.00,meteohub,2013-03-09 07:56:00,
2013-03-09 03:01:00,30.7,22.8,30.15,NW,314,0.0,3.0,72,0.00,,,0.00,meteohub,2013-03-09 08:01:00,
2013-03-09 03:06:00,30.6,22.6,30.15,NW,314,0.0,1.0,72,0.00,,,0.00,meteohub,2013-03-09 08:06:00,
2013-03-09 03:11:00,30.6,22.6,30.14,NW,314,0.0,1.0,72,0.00,,,0.00,meteohub,2013-03-09 08:11:00,
2013-03-09 03:16:00,30.7,22.5,30.15,NW,314,0.0,1.0,71,0.00,,,0.00,meteohub,2013-03-09 08:16:00,
2013-03-09 03:21:00,30.6,22.6,30.15,NW,313,0.0,1.0,72,0.00,,,0.00,meteohub,2013-03-09 08:21:00,
2013-03-09 03:26:00,30.6,22.6,30.15,NW,314,0.0,0.0,72,0.00,,,0.00,meteohub,2013-03-09 08:26:00,
2013-03-09 03:31:00,30.4,22.5,30.15,NW,314,0.0,0.0,72,0.00,,,0.00,meteohub,2013-03-09 08:31:00,
2013-03-09 03:36:00,30.0,22.5,30.15,NW,314,0.0,2.0,73,0.00,,,0.00,meteohub,2013-03-09 08:36:00,
2013-03-09 03:41:00,30.0,22.5,30.15,NW,314,0.0,2.0,73,0.00,,,0.00,meteohub,2013-03-09 08:41:00,
2013-03-09 03:46:00,29.8,22.3,30.15,NW,314,0.0,2.0,73,0.00,,,0.00,meteohub,2013-03-09 08:46:00,
2013-03-09 03:51:00,29.8,22.3,30.16,NW,314,0.0,1.0,73,0.00,,,0.00,meteohub,2013-03-09 08:51:00,
2013-03-09 03:56:00,29.7,22.1,30.16,NW,314,0.0,1.0,73,0.00,,,0.00,meteohub,2013-03-09 08:56:00,
2013-03-09 04:01:00,29.7,22.5,30.15,NW,313,0.0,0.0,74,0.00,,,0.00,meteohub,2013-03-09 09:01:00,
2013-03-09 04:06:00,29.5,22.3,30.16,NW,314,0.0,0.0,74,0.00,,,0.00,meteohub,2013-03-09 09:06:00,
2013-03-09 04:11:00,29.5,22.3,30.16,NW,308,0.0,0.0,74,0.00,,,0.00,meteohub,2013-03-09 09:11:00,
2013-03-09 04:16:00,29.7,22.1,30.17,NW,308,0.0,2.0,73,0.00,,,0.00,meteohub,2013-03-09 09:16:00,
2013-03-09 04:21:00,29.7,22.5,30.17,NW,308,0.0,2.0,74,0.00,,,0.00,meteohub,2013-03-09 09:21:00,
2013-03-09 04:26:00,29.7,22.5,30.17,NW,308,0.0,2.0,74,0.00,,,0.00,meteohub,2013-03-09 09:26:00,
2013-03-09 04:31:00,29.5,22.3,30.17,NW,308,0.0,1.0,74,0.00,,,0.00,meteohub,2013-03-09 09:31:00,
2013-03-09 04:36:00,29.5,22.3,30.17,NW,308,0.0,0.0,74,0.00,,,0.00,meteohub,2013-03-09 09:36:00,
2013-03-09 04:41:00,29.5,22.3,30.17,NW,308,0.0,0.0,74,0.00,,,0.00,meteohub,2013-03-09 09:41:00,
2013-03-09 04:46:00,29.5,22.3,30.18,NW,308,0.0,0.0,74,0.00,,,0.00,meteohub,2013-03-09 09:46:00,
2013-03-09 04:51:00,29.1,21.6,30.18,NW,308,0.0,0.0,73,0.00,,,0.00,meteohub,2013-03-09 09:51:00,
2013-03-09 04:56:00,29.1,21.9,30.18,NW,308,0.0,0.0,74,0.00,,,0.00,meteohub,2013-03-09 09:56:00,
2013-03-09 05:01:00,29.1,21.9,30.18,NW,308,0.0,0.0,74,0.00,,,0.00,meteohub,2013-03-09 10:01:00,
2013-03-09 05:06:00,29.1,21.9,30.18,NW,308,0.0,0.0,74,0.00,,,0.00,meteohub,2013-03-09 10:06:00,
2013-03-09 05:11:00,29.1,21.9,30.19,NW,308,0.0,0.0,74,0.00,,,0.00,meteohub,2013-03-09 10:11:00,
2013-03-09 05:16:00,29.1,21.9,30.19,NW,308,0.0,0.0,74,0.00,,,0.00,meteohub,2013-03-09 10:16:00,
2013-03-09 05:21:00,28.9,21.7,30.19,NW,308,0.0,1.0,74,0.00,,,0.00,meteohub,2013-03-09 10:21:00,
2013-03-09 05:26:00,28.9,22.1,30.19,NW,308,0.0,1.0,75,0.00,,,0.00,meteohub,2013-03-09 10:26:00,
2013-03-09 05:31:00,28.8,21.9,30.19,NW,309,0.0,2.0,75,0.00,,,0.00,meteohub,2013-03-09 10:31:00,
2013-03-09 05:36:00,28.8,21.6,30.19,NW,309,0.0,2.0,74,0.00,,,0.00,meteohub,2013-03-09 10:36:00,
2013-03-09 05:41:00,28.9,21.7,30.19,NW,309,0.0,2.0,74,0.00,,,0.00,meteohub,2013-03-09 10:41:00,
2013-03-09 05:46:00,28.9,21.7,30.19,NW,309,0.0,2.0,74,0.00,,,0.00,meteohub,2013-03-09 10:46:00,
2013-03-09 05:51:00,28.9,21.7,30.19,NW,309,0.0,0.0,74,0.00,,,0.00,meteohub,2013-03-09 10:51:00,
2013-03-09 05:56:00,28.9,21.7,30.20,NW,309,0.0,0.0,74,0.00,,,0.00,meteohub,2013-03-09 10:56:00,
2013-03-09 06:01:00,28.9,21.7,30.20,NW,309,0.0,0.0,74,0.00,,,0.00,meteohub,2013-03-09 11:01:00,
2013-03-09 06:06:00,28.8,21.9,30.20,NW,309,0.0,0.0,75,0.00,,,0.00,meteohub,2013-03-09 11:06:00,
2013-03-09 06:11:00,28.6,21.7,30.20,NW,309,0.0,0.0,75,0.00,,,0.00,meteohub,2013-03-09 11:11:00,
2013-03-09 06:16:00,28.2,21.4,30.19,NW,309,0.0,0.0,75,0.00,,,0.00,meteohub,2013-03-09 11:16:00,
2013-03-09 06:22:00,28.2,21.4,30.20,NW,309,0.0,0.0,75,0.00,,,0.00,meteohub,2013-03-09 11:22:00,
2013-03-09 06:27:00,28.2,21.6,30.20,NW,309,0.0,0.0,76,0.00,,,0.00,meteohub,2013-03-09 11:27:00,
2013-03-09 06:32:00,28.0,21.4,30.21,NW,309,0.0,0.0,76,0.00,,,0.00,meteohub,2013-03-09 11:32:00,
2013-03-09 06:37:00,27.9,21.6,30.21,NW,309,0.0,1.0,77,0.00,,,0.00,meteohub,2013-03-09 11:37:00,
2013-03-09 06:42:00,27.9,21.6,30.21,NW,309,0.0,1.0,77,0.00,,,0.00,meteohub,2013-03-09 11:42:00,
2013-03-09 06:47:00,28.0,21.7,30.22,NW,309,0.0,1.0,77,0.00,,,0.00,meteohub,2013-03-09 11:47:00,
2013-03-09 06:52:00,28.2,21.9,30.22,NW,309,0.0,0.0,77,0.00,,,0.00,meteohub,2013-03-09 11:52:00,
2013-03-09 06:57:00,28.6,22.3,30.22,NW,309,0.0,0.0,77,0.00,,,0.00,meteohub,2013-03-09 11:57:00,
2013-03-09 07:02:00,28.8,22.1,30.22,NW,309,0.0,0.0,76,0.00,,,0.00,meteohub,2013-03-09 12:02:00,
2013-03-09 07:07:00,29.5,22.8,30.22,NW,309,0.0,0.0,76,0.00,,,0.00,meteohub,2013-03-09 12:07:00,
2013-03-09 07:12:00,29.8,22.6,30.22,NW,309,0.0,1.0,74,0.00,,,0.00,meteohub,2013-03-09 12:12:00,
2013-03-09 07:17:00,30.9,23.4,30.23,NW,309,0.0,1.0,73,0.00,,,0.00,meteohub,2013-03-09 12:17:00,
2013-03-09 07:22:00,32.0,24.1,30.23,NW,309,0.0,0.0,72,0.00,,,0.00,meteohub,2013-03-09 12:22:00,
2013-03-09 07:27:00,33.1,24.4,30.23,NW,309,0.0,0.0,70,0.00,,,0.00,meteohub,2013-03-09 12:27:00,
2013-03-09 07:32:00,33.8,24.8,30.24,NW,309,0.0,1.0,69,0.00,,,0.00,meteohub,2013-03-09 12:32:00,
2013-03-09 07:37:00,34.3,24.4,30.24,NW,309,0.0,1.0,67,0.00,,,0.00,meteohub,2013-03-09 12:37:00,
2013-03-09 07:42:00,34.2,24.6,30.24,NW,309,0.0,1.0,68,0.00,,,0.00,meteohub,2013-03-09 12:42:00,
2013-03-09 07:47:00,34.5,24.3,30.24,NW,309,0.0,1.0,66,0.00,,,0.00,meteohub,2013-03-09 12:47:00,
2013-03-09 07:52:00,35.1,25.2,30.23,NW,309,1.0,1.0,67,0.00,,,0.00,meteohub,2013-03-09 12:52:00,
2013-03-09 07:57:00,36.1,25.9,30.23,NW,309,0.0,1.0,66,0.00,,,0.00,meteohub,2013-03-09 12:57:00,
2013-03-09 08:02:00,35.4,24.4,30.23,NW,309,0.0,1.0,64,0.00,,,0.00,meteohub,2013-03-09 13:02:00,
2013-03-09 08:07:00,34.7,24.1,30.23,NW,321,0.0,2.0,65,0.00,,,0.00,meteohub,2013-03-09 13:07:00,
2013-03-09 08:12:00,34.3,23.7,30.23,NW,316,0.0,2.0,65,0.00,,,0.00,meteohub,2013-03-09 13:12:00,
2013-03-09 08:17:00,34.3,24.1,30.23,NW,325,1.0,2.0,66,0.00,,,0.00,meteohub,2013-03-09 13:17:00,
2013-03-09 08:22:00,35.1,24.1,30.23,NW,325,1.0,4.0,64,0.00,,,0.00,meteohub,2013-03-09 13:22:00,
2013-03-09 08:27:00,35.1,24.4,30.23,NNW,329,1.0,4.0,65,0.00,,,0.00,meteohub,2013-03-09 13:27:00,
2013-03-09 08:32:00,35.4,24.4,30.23,NW,320,0.0,6.0,64,0.00,,,0.00,meteohub,2013-03-09 13:32:00,
2013-03-09 08:37:00,35.8,24.4,30.23,NW,320,0.0,6.0,63,0.00,,,0.00,meteohub,2013-03-09 13:37:00,
2013-03-09 08:42:00,36.1,24.4,30.24,WNW,290,0.0,6.0,62,0.00,,,0.00,meteohub,2013-03-09 13:42:00,
2013-03-09 08:47:00,36.7,25.3,30.23,NW,306,1.0,5.0,63,0.00,,,0.00,meteohub,2013-03-09 13:47:00,
2013-03-09 08:52:00,37.4,23.9,30.23,NNW,344,1.0,5.0,58,0.00,,,0.00,meteohub,2013-03-09 13:52:00,
2013-03-09 08:57:00,37.8,24.3,30.23,NW,313,0.0,5.0,58,0.00,,,0.00,meteohub,2013-03-09 13:57:00,
2013-03-09 09:02:00,38.5,25.0,30.23,ESE,119,0.0,4.0,58,0.00,,,0.00,meteohub,2013-03-09 14:02:00,
2013-03-09 09:07:00,38.8,25.0,30.23,WNW,296,2.0,4.0,57,0.00,,,0.00,meteohub,2013-03-09 14:07:00,
2013-03-09 09:12:00,39.0,25.2,30.23,NE,37,2.0,6.0,57,0.00,,,0.00,meteohub,2013-03-09 14:12:00,
2013-03-09 09:17:00,39.6,25.2,30.23,ENE,61,0.0,6.0,56,0.00,,,0.00,meteohub,2013-03-09 14:17:00,
2013-03-09 09:22:00,39.9,25.5,30.23,NW,304,3.0,4.0,56,0.00,,,0.00,meteohub,2013-03-09 14:22:00,
2013-03-09 09:27:00,40.1,25.7,30.23,North,5,0.0,5.0,56,0.00,,,0.00,meteohub,2013-03-09 14:27:00,
2013-03-09 09:32:00,41.0,25.2,30.23,West,267,4.0,5.0,53,0.00,,,0.00,meteohub,2013-03-09 14:32:00,
2013-03-09 09:37:00,40.5,24.6,30.24,North,355,1.0,5.0,53,0.00,,,0.00,meteohub,2013-03-09 14:37:00,
2013-03-09 09:42:00,40.8,24.6,30.23,East,101,2.0,4.0,52,0.00,,,0.00,meteohub,2013-03-09 14:42:00,
2013-03-09 09:47:00,41.2,25.3,30.23,SSE,161,0.0,4.0,53,0.00,,,0.00,meteohub,2013-03-09 14:47:00,
2013-03-09 09:52:00,41.9,28.2,30.24,East,86,0.0,3.0,58,0.00,,,0.00,meteohub,2013-03-09 14:52:00,
2013-03-09 09:57:00,41.7,25.9,30.24,NW,307,0.0,3.0,53,0.00,,,0.00,meteohub,2013-03-09 14:57:00,
2013-03-09 10:02:00,41.9,25.5,30.24,NNW,334,1.0,3.0,52,0.00,,,0.00,meteohub,2013-03-09 15:02:00,
2013-03-09 10:07:00,42.1,25.3,30.24,NE,36,1.0,4.0,51,0.00,,,0.00,meteohub,2013-03-09 15:07:00,
2013-03-09 10:12:00,41.7,25.0,30.24,ENE,74,0.0,4.0,51,0.00,,,0.00,meteohub,2013-03-09 15:12:00,
2013-03-09 10:17:00,41.0,23.4,30.24,SW,229,0.0,4.0,49,0.00,,,0.00,meteohub,2013-03-09 15:17:00,
2013-03-09 10:22:00,43.3,25.9,30.24,West,275,0.0,4.0,50,0.00,,,0.00,meteohub,2013-03-09 15:22:00,
2013-03-09 10:27:00,43.0,24.6,30.24,SW,221,1.0,4.0,48,0.00,,,0.00,meteohub,2013-03-09 15:27:00,
2013-03-09 10:32:00,42.4,25.2,30.25,SSW,213,0.0,4.0,50,0.00,,,0.00,meteohub,2013-03-09 15:32:00,
2013-03-09 10:37:00,42.3,25.0,30.24,SSE,166,0.0,3.0,50,0.00,,,0.00,meteohub,2013-03-09 15:37:00,
2013-03-09 10:42:00,43.0,26.1,30.24,WNW,284,1.0,3.0,51,0.00,,,0.00,meteohub,2013-03-09 15:42:00,
2013-03-09 10:47:00,44.2,27.7,30.24,NW,319,0.0,5.0,52,0.00,,,0.00,meteohub,2013-03-09 15:47:00,
2013-03-09 10:52:00,42.3,23.9,30.24,WSW,252,0.0,5.0,48,0.00,,,0.00,meteohub,2013-03-09 15:52:00,
2013-03-09 10:57:00,42.6,23.4,30.24,East,98,0.0,5.0,46,0.00,,,0.00,meteohub,2013-03-09 15:57:00,
2013-03-09 11:02:00,43.7,25.3,30.24,West,279,5.0,5.0,48,0.00,,,0.00,meteohub,2013-03-09 16:02:00,
2013-03-09 11:07:00,43.5,25.7,30.24,WNW,290,0.0,6.0,49,0.00,,,0.00,meteohub,2013-03-09 16:07:00,
2013-03-09 11:12:00,43.9,25.0,30.25,SW,222,0.0,6.0,47,0.00,,,0.00,meteohub,2013-03-09 16:12:00,
2013-03-09 11:17:00,44.2,25.3,30.24,WNW,297,0.0,6.0,47,0.00,,,0.00,meteohub,2013-03-09 16:17:00,
2013-03-09 11:22:00,44.4,25.9,30.25,NNW,336,2.0,3.0,48,0.00,,,0.00,meteohub,2013-03-09 16:22:00,
2013-03-09 11:27:00,44.2,24.8,30.25,SW,235,2.0,3.0,46,0.00,,,0.00,meteohub,2013-03-09 16:27:00,
2013-03-09 11:32:00,45.0,28.4,30.25,North,351,0.0,6.0,52,0.00,,,0.00,meteohub,2013-03-09 16:32:00,
2013-03-09 11:37:00,45.3,24.1,30.25,NW,326,1.0,6.0,43,0.00,,,0.00,meteohub,2013-03-09 16:37:00,
2013-03-09 11:42:00,44.6,23.5,30.25,NW,326,1.0,6.0,43,0.00,,,0.00,meteohub,2013-03-09 16:42:00,
2013-03-09 11:47:00,44.8,24.8,30.25,NW,304,2.0,6.0,45,0.00,,,0.00,meteohub,2013-03-09 16:47:00,
2013-03-09 11:52:00,44.6,23.5,30.25,NW,317,1.0,6.0,43,0.00,,,0.00,meteohub,2013-03-09 16:52:00,
2013-03-09 11:57:00,44.8,22.5,30.25,NW,311,0.0,7.0,41,0.00,,,0.00,meteohub,2013-03-09 16:57:00,
2013-03-09 12:03:00,44.8,24.8,30.25,NW,307,2.0,7.0,45,0.00,,,0.00,meteohub,2013-03-09 17:03:00,
2013-03-09 12:08:00,45.7,23.9,30.25,NNW,328,0.0,7.0,42,0.00,,,0.00,meteohub,2013-03-09 17:08:00,
2013-03-09 12:13:00,45.7,24.4,30.25,SW,230,1.0,5.0,43,0.00,,,0.00,meteohub,2013-03-09 17:13:00,
2013-03-09 12:18:00,45.5,25.3,30.24,WSW,256,1.0,5.0,45,0.00,,,0.00,meteohub,2013-03-09 17:18:00,
2013-03-09 12:23:00,45.9,22.8,30.24,NNW,348,0.0,4.0,40,0.00,,,0.00,meteohub,2013-03-09 17:23:00,
2013-03-09 12:28:00,45.5,24.3,30.24,West,268,0.0,6.0,43,0.00,,,0.00,meteohub,2013-03-09 17:28:00,
2013-03-09 12:33:00,45.7,23.9,30.24,SE,126,0.0,6.0,42,0.00,,,0.00,meteohub,2013-03-09 17:33:00,
2013-03-09 12:38:00,44.4,23.4,30.24,ESE,119,0.0,6.0,43,0.00,,,0.00,meteohub,2013-03-09 17:38:00,
2013-03-09 12:43:00,45.9,24.1,30.23,West,279,0.0,3.0,42,0.00,,,0.00,meteohub,2013-03-09 17:43:00,
2013-03-09 12:48:00,46.0,23.7,30.23,West,277,0.0,3.0,41,0.00,,,0.00,meteohub,2013-03-09 17:48:00,
2013-03-09 12:53:00,46.2,23.9,30.23,WNW,289,0.0,3.0,41,0.00,,,0.00,meteohub,2013-03-09 17:53:00,
2013-03-09 12:58:00,46.9,23.2,30.23,SSW,208,0.0,3.0,39,0.00,,,0.00,meteohub,2013-03-09 17:58:00,
2013-03-09 13:03:00,46.9,23.9,30.23,NW,326,0.0,3.0,40,0.00,,,0.00,meteohub,2013-03-09 18:03:00,
2013-03-09 13:08:00,46.6,24.1,30.23,ESE,113,1.0,3.0,41,0.00,,,0.00,meteohub,2013-03-09 18:08:00,
2013-03-09 13:13:00,45.9,24.1,30.23,SE,140,0.0,3.0,42,0.00,,,0.00,meteohub,2013-03-09 18:13:00,
2013-03-09 13:18:00,47.1,22.1,30.23,SSW,200,0.0,3.0,37,0.00,,,0.00,meteohub,2013-03-09 18:18:00,
2013-03-09 13:23:00,47.1,22.1,30.23,WNW,300,1.0,3.0,37,0.00,,,0.00,meteohub,2013-03-09 18:23:00,
2013-03-09 13:28:00,46.8,23.7,30.22,WNW,298,0.0,5.0,40,0.00,,,0.00,meteohub,2013-03-09 18:28:00,
2013-03-09 13:33:00,46.6,23.5,30.23,South,171,0.0,5.0,40,0.00,,,0.00,meteohub,2013-03-09 18:33:00,
2013-03-09 13:38:00,46.2,22.6,30.22,SE,142,0.0,5.0,39,0.00,,,0.00,meteohub,2013-03-09 18:38:00,
2013-03-09 13:43:00,46.6,24.1,30.22,SE,142,2.0,3.0,41,0.00,,,0.00,meteohub,2013-03-09 18:43:00,
2013-03-09 13:48:00,46.8,21.9,30.22,WNW,284,0.0,3.0,37,0.00,,,0.00,meteohub,2013-03-09 18:48:00,
2013-03-09 13:53:00,46.9,22.6,30.22,ESE,105,0.0,3.0,38,0.00,,,0.00,meteohub,2013-03-09 18:53:00,
2013-03-09 13:58:00,46.6,23.0,30.22,East,101,1.0,3.0,39,0.00,,,0.00,meteohub,2013-03-09 18:58:00,
2013-03-09 14:03:00,46.8,22.5,30.22,East,101,0.0,4.0,38,0.00,,,0.00,meteohub,2013-03-09 19:03:00,
2013-03-09 14:08:00,47.1,22.1,30.22,ENE,59,1.0,4.0,37,0.00,,,0.00,meteohub,2013-03-09 19:08:00,
2013-03-09 14:13:00,46.9,22.6,30.22,SSE,165,1.0,3.0,38,0.00,,,0.00,meteohub,2013-03-09 19:13:00,
2013-03-09 14:18:00,47.3,23.0,30.22,SSE,165,0.0,3.0,38,0.00,,,0.00,meteohub,2013-03-09 19:18:00,
2013-03-09 14:23:00,46.9,22.1,30.22,ESE,118,0.0,3.0,37,0.00,,,0.00,meteohub,2013-03-09 19:23:00,
2013-03-09 14:28:00,47.1,21.6,30.22,ENE,78,0.0,3.0,36,0.00,,,0.00,meteohub,2013-03-09 19:28:00,
2013-03-09 14:33:00,47.3,23.0,30.21,SE,143,0.0,3.0,38,0.00,,,0.00,meteohub,2013-03-09 19:33:00,
2013-03-09 14:38:00,47.5,23.2,30.22,SE,143,1.0,3.0,38,0.00,,,0.00,meteohub,2013-03-09 19:38:00,
2013-03-09 14:43:00,47.7,22.1,30.21,SSW,205,0.0,3.0,36,0.00,,,0.00,meteohub,2013-03-09 19:43:00,
2013-03-09 14:48:00,47.8,20.8,30.21,ESE,113,0.0,3.0,34,0.00,,,0.00,meteohub,2013-03-09 19:48:00,
2013-03-09 14:53:00,48.4,22.6,30.21,SE,142,0.0,2.0,36,0.00,,,0.00,meteohub,2013-03-09 19:53:00,
2013-03-09 14:58:00,47.8,21.6,30.21,SE,126,0.0,2.0,35,0.00,,,0.00,meteohub,2013-03-09 19:58:00,
2013-03-09 15:03:00,47.8,22.1,30.21,SE,126,0.0,3.0,36,0.00,,,0.00,meteohub,2013-03-09 20:03:00,
2013-03-09 15:08:00,48.4,21.9,30.21,SE,126,1.0,3.0,35,0.00,,,0.00,meteohub,2013-03-09 20:08:00,
2013-03-09 15:13:00,47.8,21.6,30.21,SE,126,0.0,3.0,35,0.00,,,0.00,meteohub,2013-03-09 20:13:00,
2013-03-09 15:18:00,48.0,22.3,30.21,SSE,150,0.0,2.0,36,0.00,,,0.00,meteohub,2013-03-09 20:18:00,
2013-03-09 15:23:00,48.0,22.3,30.21,SE,138,0.0,2.0,36,0.00,,,0.00,meteohub,2013-03-09 20:23:00,
2013-03-09 15:28:00,48.6,20.8,30.21,SSE,154,0.0,3.0,33,0.00,,,0.00,meteohub,2013-03-09 20:28:00,
2013-03-09 15:33:00,48.4,21.4,30.21,NW,323,0.0,3.0,34,0.00,,,0.00,meteohub,2013-03-09 20:33:00,
2013-03-09 15:38:00,48.2,21.7,30.21,NW,323,0.0,3.0,35,0.00,,,0.00,meteohub,2013-03-09 20:38:00,
2013-03-09 15:44:00,48.2,22.5,30.22,NE,50,0.0,3.0,36,0.00,,,0.00,meteohub,2013-03-09 20:44:00,
2013-03-09 15:48:00,47.8,20.8,30.22,ENE,75,0.0,3.0,34,0.00,,,0.00,meteohub,2013-03-09 20:48:00,
2013-03-09 15:54:00,47.7,22.6,30.22,SE,128,1.0,2.0,37,0.00,,,0.00,meteohub,2013-03-09 20:54:00,
2013-03-09 15:59:00,47.7,22.1,30.22,SE,136,3.0,3.0,36,0.00,,,0.00,meteohub,2013-03-09 20:59:00,
2013-03-09 16:04:00,47.1,22.8,30.22,ESE,116,2.0,4.0,38,0.00,,,0.00,meteohub,2013-03-09 21:04:00,
2013-03-09 16:09:00,46.8,26.6,30.23,ESE,102,2.0,5.0,45,0.00,,,0.00,meteohub,2013-03-09 21:09:00,
2013-03-09 16:14:00,46.4,26.2,30.23,ESE,116,1.0,5.0,45,0.00,,,0.00,meteohub,2013-03-09 21:14:00,
2013-03-09 16:19:00,45.9,27.3,30.23,ESE,116,1.0,5.0,48,0.00,,,0.00,meteohub,2013-03-09 21:19:00,
2013-03-09 16:24:00,45.9,27.3,30.24,ESE,122,3.0,5.0,48,0.00,,,0.00,meteohub,2013-03-09 21:24:00,
2013-03-09 16:29:00,45.7,27.7,30.24,ESE,110,5.0,5.0,49,0.00,,,0.00,meteohub,2013-03-09 21:29:00,
2013-03-09 16:34:00,45.0,28.4,30.24,ESE,109,1.0,9.0,52,0.00,,,0.00,meteohub,2013-03-09 21:34:00,
2013-03-09 16:39:00,44.4,28.8,30.24,SE,129,0.0,9.0,54,0.00,,,0.00,meteohub,2013-03-09 21:39:00,
2013-03-09 16:44:00,44.1,28.9,30.25,ESE,119,1.0,9.0,55,0.00,,,0.00,meteohub,2013-03-09 21:44:00,
2013-03-09 16:49:00,44.1,29.3,30.25,SE,130,1.0,7.0,56,0.00,,,0.00,meteohub,2013-03-09 21:49:00,
2013-03-09 16:54:00,43.3,29.1,30.25,SE,126,0.0,7.0,57,0.00,,,0.00,meteohub,2013-03-09 21:54:00,
2013-03-09 16:59:00,42.8,29.8,30.25,SE,126,1.0,7.0,60,0.00,,,0.00,meteohub,2013-03-09 21:59:00,
2013-03-09 17:04:00,41.7,29.7,30.25,ESE,121,2.0,3.0,62,0.00,,,0.00,meteohub,2013-03-09 22:04:00,
2013-03-09 17:09:00,41.9,29.8,30.25,SE,130,0.0,2.0,62,0.00,,,0.00,meteohub,2013-03-09 22:09:00,
2013-03-09 17:14:00,41.4,29.7,30.26,ESE,109,0.0,4.0,63,0.00,,,0.00,meteohub,2013-03-09 22:14:00,
2013-03-09 17:19:00,41.2,30.0,30.26,SE,126,1.0,4.0,64,0.00,,,0.00,meteohub,2013-03-09 22:19:00,
2013-03-09 17:24:00,40.5,29.7,30.27,SE,126,0.0,4.0,65,0.00,,,0.00,meteohub,2013-03-09 22:24:00,
2013-03-09 17:29:00,39.7,29.3,30.27,SE,126,1.0,4.0,66,0.00,,,0.00,meteohub,2013-03-09 22:29:00,
2013-03-09 17:34:00,39.6,29.5,30.27,East,93,0.0,4.0,67,0.00,,,0.00,meteohub,2013-03-09 22:34:00,
2013-03-09 17:39:00,39.0,29.3,30.27,East,93,0.0,2.0,68,0.00,,,0.00,meteohub,2013-03-09 22:39:00,
2013-03-09 17:44:00,38.7,29.3,30.28,East,93,0.0,2.0,69,0.00,,,0.00,meteohub,2013-03-09 22:44:00,
2013-03-09 17:49:00,38.1,29.1,30.28,East,93,0.0,2.0,70,0.00,,,0.00,meteohub,2013-03-09 22:49:00,
2013-03-09 17:54:00,37.8,29.1,30.28,East,93,0.0,1.0,71,0.00,,,0.00,meteohub,2013-03-09 22:54:00,
2013-03-09 17:59:00,37.6,29.3,30.28,East,93,0.0,0.0,72,0.00,,,0.00,meteohub,2013-03-09 22:59:00,
2013-03-09 18:04:00,37.0,29.1,30.28,East,93,0.0,0.0,73,0.00,,,0.00,meteohub,2013-03-09 23:04:00,
2013-03-09 18:09:00,36.9,28.9,30.28,East,93,0.0,1.0,73,0.00,,,0.00,meteohub,2013-03-09 23:09:00,
2013-03-09 18:14:00,36.5,29.3,30.28,East,93,0.0,1.0,75,0.00,,,0.00,meteohub,2013-03-09 23:14:00,
2013-03-09 18:19:00,36.1,29.3,30.28,East,93,0.0,1.0,76,0.00,,,0.00,meteohub,2013-03-09 23:19:00,
2013-03-09 18:24:00,36.1,29.3,30.28,East,93,0.0,0.0,76,0.00,,,0.00,meteohub,2013-03-09 23:24:00,
2013-03-09 18:29:00,36.0,29.1,30.28,East,93,0.0,0.0,76,0.00,,,0.00,meteohub,2013-03-09 23:29:00,
2013-03-09 18:34:00,36.0,29.5,30.29,East,93,0.0,0.0,77,0.00,,,0.00,meteohub,2013-03-09 23:34:00,
2013-03-09 18:39:00,35.6,29.1,30.29,East,93,0.0,0.0,77,0.00,,,0.00,meteohub,2013-03-09 23:39:00,
2013-03-09 18:44:00,35.2,29.1,30.29,East,94,0.0,0.0,78,0.00,,,0.00,meteohub,2013-03-09 23:44:00,
2013-03-09 18:49:00,35.1,29.1,30.29,East,93,0.0,0.0,79,0.00,,,0.00,meteohub,2013-03-09 23:49:00,
2013-03-09 18:54:00,34.9,29.1,30.29,East,93,2.0,0.0,79,0.00,,,0.00,meteohub,2013-03-09 23:54:00,
2013-03-09 19:00:00,34.5,28.9,30.30,East,93,0.0,0.0,80,0.00,,,0.00,meteohub,2013-03-10 00:00:00,
2013-03-09 19:05:00,34.3,29.1,30.30,East,93,0.0,2.0,81,0.00,,,0.00,meteohub,2013-03-10 00:05:00,
2013-03-09 19:10:00,34.2,28.9,30.30,East,94,0.0,2.0,81,0.00,,,0.00,meteohub,2013-03-10 00:10:00,
2013-03-09 19:15:00,34.0,28.8,30.30,East,93,0.0,1.0,81,0.00,,,0.00,meteohub,2013-03-10 00:15:00,
2013-03-09 19:20:00,33.6,28.8,30.30,East,93,0.0,0.0,82,0.00,,,0.00,meteohub,2013-03-10 00:20:00,
2013-03-09 19:25:00,33.3,28.6,30.31,East,93,0.0,0.0,83,0.00,,,0.00,meteohub,2013-03-10 00:25:00,
2013-03-09 19:30:00,32.9,28.2,30.31,East,93,0.0,0.0,83,0.00,,,0.00,meteohub,2013-03-10 00:30:00,
2013-03-09 19:35:00,32.5,28.2,30.31,East,93,0.0,0.0,84,0.00,,,0.00,meteohub,2013-03-10 00:35:00,
2013-03-09 19:40:00,32.2,28.2,30.32,East,93,0.0,0.0,85,0.00,,,0.00,meteohub,2013-03-10 00:40:00,
2013-03-09 19:45:00,31.6,27.9,30.32,East,93,0.0,0.0,86,0.00,,,0.00,meteohub,2013-03-10 00:45:00,
2013-03-09 19:50:00,31.6,27.9,30.32,East,93,0.0,0.0,86,0.00,,,0.00,meteohub,2013-03-10 00:50:00,
2013-03-09 19:55:00,31.3,27.9,30.32,East,93,0.0,0.0,87,0.00,,,0.00,meteohub,2013-03-10 00:55:00,
2013-03-09 20:00:00,31.1,27.7,30.32,East,93,0.0,0.0,87,0.00,,,0.00,meteohub,2013-03-10 01:00:00,
2013-03-09 20:05:00,30.7,27.7,30.32,East,93,0.0,0.0,88,0.00,,,0.00,meteohub,2013-03-10 01:05:00,
2013-03-09 20:10:00,30.4,27.3,30.32,East,93,0.0,0.0,88,0.00,,,0.00,meteohub,2013-03-10 01:10:00,
2013-03-09 20:15:00,30.2,27.3,30.32,East,93,0.0,0.0,89,0.00,,,0.00,meteohub,2013-03-10 01:15:00,
2013-03-09 20:20:00,30.0,27.1,30.32,East,93,0.0,0.0,89,0.00,,,0.00,meteohub,2013-03-10 01:20:00,
2013-03-09 20:25:00,29.8,27.0,30.32,East,93,0.0,0.0,89,0.00,,,0.00,meteohub,2013-03-10 01:25:00,
2013-03-09 20:30:00,29.7,26.8,30.32,East,93,0.0,0.0,89,0.00,,,0.00,meteohub,2013-03-10 01:30:00,
2013-03-09 20:35:00,29.5,26.6,30.32,East,93,0.0,0.0,89,0.00,,,0.00,meteohub,2013-03-10 01:35:00,
2013-03-09 20:40:00,29.3,26.8,30.32,East,93,0.0,0.0,90,0.00,,,0.00,meteohub,2013-03-10 01:40:00,
2013-03-09 20:45:00,29.1,26.6,30.33,East,93,0.0,0.0,90,0.00,,,0.00,meteohub,2013-03-10 01:45:00,
2013-03-09 20:50:00,29.1,26.6,30.33,East,93,0.0,0.0,90,0.00,,,0.00,meteohub,2013-03-10 01:50:00,
2013-03-09 20:55:00,28.9,26.4,30.33,East,93,0.0,0.0,90,0.00,,,0.00,meteohub,2013-03-10 01:55:00,
2013-03-09 21:00:00,28.9,26.6,30.33,East,93,0.0,0.0,91,0.00,,,0.00,meteohub,2013-03-10 02:00:00,
2013-03-09 21:05:00,28.8,26.4,30.33,East,93,0.0,0.0,91,0.00,,,0.00,meteohub,2013-03-10 02:05:00,
2013-03-09 21:10:00,28.6,26.2,30.33,East,93,0.0,0.0,91,0.00,,,0.00,meteohub,2013-03-10 02:10:00,
2013-03-09 21:15:00,28.6,26.2,30.33,East,93,0.0,0.0,91,0.00,,,0.00,meteohub,2013-03-10 02:15:00,
2013-03-09 21:20:00,28.4,26.1,30.33,East,93,0.0,0.0,91,0.00,,,0.00,meteohub,2013-03-10 02:20:00,
2013-03-09 21:25:00,28.2,25.9,30.33,East,93,0.0,0.0,91,0.00,,,0.00,meteohub,2013-03-10 02:25:00,
2013-03-09 21:30:00,28.0,25.7,30.33,East,94,0.0,0.0,91,0.00,,,0.00,meteohub,2013-03-10 02:30:00,
2013-03-09 21:35:00,27.9,25.9,30.33,East,93,0.0,0.0,92,0.00,,,0.00,meteohub,2013-03-10 02:35:00,
2013-03-09 21:40:00,27.9,25.9,30.32,East,93,0.0,0.0,92,0.00,,,0.00,meteohub,2013-03-10 02:40:00,
2013-03-09 21:45:00,27.9,25.9,30.33,East,94,0.0,0.0,92,0.00,,,0.00,meteohub,2013-03-10 02:45:00,
2013-03-09 21:50:00,28.0,26.1,30.33,East,93,0.0,0.0,92,0.00,,,0.00,meteohub,2013-03-10 02:50:00,
2013-03-09 21:55:00,27.9,25.9,30.33,East,93,0.0,0.0,92,0.00,,,0.00,meteohub,2013-03-10 02:55:00,
2013-03-09 22:00:00,27.7,25.7,30.33,East,93,0.0,0.0,92,0.00,,,0.00,meteohub,2013-03-10 03:00:00,
2013-03-09 22:05:00,27.3,25.3,30.32,East,93,0.0,0.0,92,0.00,,,0.00,meteohub,2013-03-10 03:05:00,
2013-03-09 22:10:00,27.3,25.3,30.32,East,93,0.0,0.0,92,0.00,,,0.00,meteohub,2013-03-10 03:10:00,
2013-03-09 22:15:00,27.1,25.3,30.32,East,93,0.0,0.0,93,0.00,,,0.00,meteohub,2013-03-10 03:15:00,
2013-03-09 22:20:00,27.0,25.0,30.32,East,93,0.0,0.0,92,0.00,,,0.00,meteohub,2013-03-10 03:20:00,
2013-03-09 22:25:00,26.8,25.0,30.32,East,93,0.0,0.0,93,0.00,,,0.00,meteohub,2013-03-10 03:25:00,
2013-03-09 22:30:00,27.0,25.2,30.32,East,93,0.0,0.0,93,0.00,,,0.00,meteohub,2013-03-10 03:30:00,
2013-03-09 22:35:00,26.8,25.0,30.32,East,93,0.0,0.0,93,0.00,,,0.00,meteohub,2013-03-10 03:35:00,
2013-03-09 22:40:00,26.2,24.4,30.33,East,93,0.0,0.0,93,0.00,,,0.00,meteohub,2013-03-10 03:40:00,
2013-03-09 22:45:00,26.2,24.4,30.33,East,93,0.0,0.0,93,0.00,,,0.00,meteohub,2013-03-10 03:45:00,
2013-03-09 22:50:00,26.1,24.3,30.33,East,93,0.0,0.0,93,0.00,,,0.00,meteohub,2013-03-10 03:50:00,
2013-03-09 22:55:00,26.1,24.3,30.33,East,94,0.0,0.0,93,0.00,,,0.00,meteohub,2013-03-10 03:55:00,
2013-03-09 23:00:00,26.1,24.3,30.33,East,93,0.0,0.0,93,0.00,,,0.00,meteohub,2013-03-10 04:00:00,
2013-03-09 23:05:00,25.9,24.1,30.33,East,93,0.0,0.0,93,0.00,,,0.00,meteohub,2013-03-10 04:05:00,
2013-03-09 23:11:00,25.9,24.1,30.33,East,93,0.0,0.0,93,0.00,,,0.00,meteohub,2013-03-10 04:11:00,
2013-03-09 23:16:00,26.1,24.3,30.33,East,93,0.0,0.0,93,0.00,,,0.00,meteohub,2013-03-10 04:16:00,
2013-03-09 23:21:00,26.2,24.8,30.34,East,93,0.0,0.0,94,0.00,,,0.00,meteohub,2013-03-10 04:21:00,
2013-03-09 23:26:00,26.2,24.4,30.34,East,93,0.0,0.0,93,0.00,,,0.00,meteohub,2013-03-10 04:26:00,
2013-03-09 23:31:00,26.1,24.3,30.34,East,93,0.0,0.0,93,0.00,,,0.00,meteohub,2013-03-10 04:31:00,
2013-03-09 23:36:00,25.5,23.7,30.34,East,93,0.0,0.0,93,0.00,,,0.00,meteohub,2013-03-10 04:36:00,
2013-03-09 23:41:00,25.5,24.1,30.34,East,93,0.0,0.0,94,0.00,,,0.00,meteohub,2013-03-10 04:41:00,
2013-03-09 23:46:00,25.3,23.5,30.34,East,93,0.0,0.0,93,0.00,,,0.00,meteohub,2013-03-10 04:46:00,
2013-03-09 23:51:00,25.3,23.5,30.34,East,93,0.0,0.0,93,0.00,,,0.00,meteohub,2013-03-10 04:51:00,
2013-03-09 23:56:00,25.3,23.5,30.34,East,93,0.0,0.0,93,0.00,,,0.00,meteohub,2013-03-10 04:56:00,